Regional Weather Roundup
Issued by NWS

Home | Current Version | Previous Version | Text Only | Print | Product List | Glossary Off
Versions: 1 2 3 4 5 6 7 8 9 10 11 12 13 14 15 16 17 18 19 20 21 22 23 24 25 26 27

000
ASUS45 KBOU 210410
RWRCO

WEATHER ROUNDUP FOR COLORADO
NATIONAL WEATHER SERVICE DENVER/BOULDER CO
900 PM MST MON NOV 20 2017

NOTE: "FAIR" INDICATES FEW OR NO CLOUDS BELOW 12000 FEET WITH NO
SIGNIFICANT WEATHER AND/OR OBSTRUCTIONS TO VISIBILITY.

COZ001>005-013-030-031-210500-
...NORTHWEST COLORADO...

CITY           SKY/WX    TMP DP  RH WIND       PRES   REMARKS
CRAIG          FAIR      34  24  67 SW7       30.11S WCI  28
HAYDEN         MOCLDY    34  24  67 CALM      30.13R
MEEKER         FAIR      39  15  37 W5        30.14R
RABBIT EARS PA CLOUDY    28   9  43 W12G26    30.16R WCI  18
STEAMBOAT SPGS CLOUDY    32  24  71 CALM      30.12R
WALDEN         FAIR      37   7  28 W7        30.08R
$$

COZ006>008-011-210500-
...WEST CENTRAL VALLEYS...

CITY           SKY/WX    TMP DP  RH WIND       PRES   REMARKS
GRAND JUNCTION FAIR      35  18  49 CALM      30.18S
MONTROSE       FAIR      33  25  72 S8        30.23R WCI  26
EAGLE          MOCLDY    33  21  61 VRB7      30.16R WCI  27
RIFLE          FAIR      34  25  69 S3        30.19R
DELTA          FAIR      36  21  55 CALM      30.20S
NUCLA          FAIR      34  12  40 CALM      30.24R
$$

COZ017>023-064>068-210500-
...SOUTHWEST COLORADO...

CITY           SKY/WX    TMP DP  RH WIND       PRES   REMARKS
DURANGO        FAIR      30  14  51 CALM      30.17R
CORTEZ         FAIR      31  13  47 NE9       30.19R WCI  23
PAGOSA SPRINGS FAIR      30  14  52 CALM      30.19R
TELLURIDE      CLOUDY    37   9  30 CALM      30.29R
WOLF CREEK PAS FAIR      32  14  47 W9G17     30.31R WCI  24
$$

COZ009-010-012-014-032>034-037-058>063-210500-
...CENTRAL COLORADO...

CITY           SKY/WX    TMP DP  RH WIND       PRES   REMARKS
ASPEN          FAIR      32  22  66 SW6       30.16R WCI  26
BUENA VISTA    FAIR      45   4  19 W21G26    30.05S
COPPER MTN     CLOUDY    32   5  32 MISG      30.20S
BERTHOUD PASS  CLOUDY    23  12  63 W37G47    30.17R WCI   4
COTTONWOOD PAS FAIR      45  -4  13 W47G66    30.05R
GUNNISON       FAIR      26  21  81 CALM      30.21R
KREMMLING      MOCLDY    43   7  22 W5        30.10R
LEADVILLE      FAIR      34   5  29 N12G17    30.15R WCI  25
MONARCH PASS   FAIR      27  -6  24 W36G41    30.32R WCI   9
SALIDA         FAIR      51  -4  10 W21G38    30.09F
SUNLIGHT       FAIR      28   0  29 SW15G31   30.25R WCI  17
WILKERSON PASS FAIR      32   9  37 NW21      30.09F WCI  20
$$

COZ069>075-210500-
...SAN LUIS VALLEY/SANGRE DE CRISTO MOUNTAINS...

CITY           SKY/WX    TMP DP  RH WIND       PRES   REMARKS
ALAMOSA        FAIR      25  11  55 S7        30.10R WCI  17
DEL NORTE      FAIR      31   6  35 W5        30.10R WCI  26
LA VETA PASS   FAIR      34   3  27 SW16G23     N/A  WCI  23
SAGUACHE       FAIR      39  -4  16 NW12      30.09S
$$

COZ035-036-038>040-210500-
...NORTHERN COLORADO FRONT RANGE...

CITY           SKY/WX    TMP DP  RH WIND       PRES   REMARKS
DENVER INTL AP MOCLDY    56  10  16 W17G25    29.88R
DMNS CITY PARK   N/A     56   6  13 E8        29.89R
AURORA         MOCLDY    53  11  18 W8        29.90S
FRONT RANGE AP FAIR      57  13  18 SW14G21   29.88F
ERIE MUNI ARPT FAIR      49  12  23 SW5       29.92R
BOULDER MUN AP FAIR      55  10  16 E5        29.86S
CENTENNIAL     MOCLDY    51  17  26 E8        29.91R
BROOMFIELD     MOCLDY    57   7  13 W24G44    29.90R
FORT COLLINS   FAIR      58  11  15 SW24G36   29.83F
LONGMONT       FAIR      60   8  12 W12G28    29.89R
$$

COZ041-046-047-076>085-087-088-210500-
...PIKES PEAK/PALMER DIVIDE AND SOUTHERN FOOTHILLS...

CITY           SKY/WX    TMP DP  RH WIND       PRES   REMARKS
COLO. SPRINGS  CLOUDY    57  11  16 NW23G32   29.92R
A. F. ACADEMY  FAIR      49   6  17 N12       29.93R
SCHRIEVER AFB  FAIR      50   8  18 N9        29.92R
CHEYENNE MTN   MOCLDY    49  14  25 NW7       29.89R
ELLICOTT         N/A    N/A N/A N/A NE9       29.91R
FALCON         FAIR      46   8  21 NW7       29.96R
FORT CARSON    FAIR      51  16  25 NE5       29.88R
LIMON          FAIR      33  17  51 CALM      29.90R
MONUMENT HILL  FAIR      41  16  36 W8        29.97R
CANON CITY     FAIR      52  14  22 W6        29.91R
WALSENBURG     FAIR      57   0   9 W23G35    29.93R
TRINIDAD       FAIR      47  15  27 W9        29.89F
$$

COZ042>045-048>051-090-091-210500-
...NORTHEAST COLORADO...

CITY           SKY/WX    TMP DP  RH WIND       PRES   REMARKS
GREELEY ARPT   FAIR      48  18  30 NE8       29.86S
AKRON          MOCLDY    50  16  25 NW13      29.84R
BURLINGTON     FAIR      41  15  35 CALM      29.85R
WRAY           NOT AVBL
YUMA           FAIR      43  21  42 W8        29.82R
STERLING       CLOUDY    59  16  18 NW22      29.80R
HOLYOKE        FAIR      52  21  30 N10       29.79S
FORT MORGAN    CLOUDY    50  12  22 W5        29.86R
$$

COZ086-089-092>099-210500-
...SOUTHEAST COLORADO...

CITY           SKY/WX    TMP DP  RH WIND       PRES   REMARKS
PUEBLO         FAIR      54  14  20 NW10      29.85R
LA JUNTA       FAIR      48  17  29 W6        29.82R
LAMAR          FAIR      32   9  38 W5        29.81R WCI  27
SPRINGFIELD      N/A     35  17  47 NE6       29.83S WCI  30
$$




USA.gov is the U.S. government's official web portal to all federal, state and local government web resources and services.